No particular awareness of the weather is required.    There are no Weather-warnings


Meteo18 Weather Cam more information Meteo18 Weather Cam


Thunder radar more information blitzortung!


Rain radar more information rain snow radar


Visit our other weather sites:

Template documentation
and downloads

And another site



Weather Underground History page Text

Daily Summary for December 6, 2017 Units:  Both    English   Metric
« Previous Day
Next Day »
Daily Weekly Monthly Yearly Custom
  High: Low: Average:
Temperature: 36.3 °F /  2.4 °C 29.3 °F /  -1.5 °C 33.8 °F /  1 °C
Dew Point: 35.6 °F /  2.0 °C 28.6 °F /  -1.9 °C 32.5 °F /  0.3 °C
Humidity: 98 % 92 % 95 %
Wind Speed: 4 mph /  6.4 km/h - 0.7 mph /  1.1 km/h
Wind Gust: 7 mph /  11.3 km/h - -
Wind:- - SSE
Pressure: 30.7 in /  1038.1 hPa 30.4 in /  1029.7 hPa -
Precipitation: 0.01 in /  0.3 mm    
Historical Graphs
 
 
Tabular Data for December 6, 2017
Time Temperature Dew Point Pressure Wind Wind Speed Wind Gust Humidity Rainfall Rate (Hourly)
00:02 32.9 °F /  0.5 °C 31.8 °F /  -0.1 °C 30.7 in /  1038.1 hPa Calm     96 % 0.01 in /  0.3 mm
00:07 32.7 °F /  0.4 °C 31.6 °F /  -0.2 °C 30.7 in /  1038.1 hPa Calm     96 % 0.01 in /  0.3 mm
00:12 32.5 °F /  0.3 °C 31.5 °F /  -0.3 °C 30.7 in /  1038.1 hPa Calm     96 % 0.01 in /  0.3 mm
00:17 32.4 °F /  0.2 °C 31.3 °F /  -0.4 °C 30.7 in /  1038.1 hPa Calm     96 % 0.01 in /  0.3 mm
00:22 32.4 °F /  0.2 °C 31.3 °F /  -0.4 °C 30.7 in /  1038.1 hPa Calm     96 % 0.01 in /  0.3 mm
00:32 32 °F /  0.0 °C 30.9 °F /  -0.6 °C 30.7 in /  1038.1 hPa Calm   1 mph /  1.6 km/h 96 % 0.01 in /  0.3 mm
00:42 31.6 °F /  -0.2 °C 30.6 °F /  -0.8 °C 30.7 in /  1038.1 hPa Calm     96 % 0.01 in /  0.3 mm
00:47 31.5 °F /  -0.3 °C 30.4 °F /  -0.9 °C 30.7 in /  1038.1 hPa Calm     96 % 0.01 in /  0.3 mm
00:52 31.3 °F /  -0.4 °C 30.2 °F /  -1.0 °C 30.7 in /  1038.1 hPa Calm   1 mph /  1.6 km/h 96 % 0.01 in /  0.3 mm
00:57 30.9 °F /  -0.6 °C 29.8 °F /  -1.2 °C 30.7 in /  1038.1 hPa Calm   1 mph /  1.6 km/h 96 % 0.01 in /  0.3 mm
01:02 30.7 °F /  -0.7 °C 29.7 °F /  -1.3 °C 30.6 in /  1037.8 hPa Calm   1 mph /  1.6 km/h 96 % 0 in /  0.0 mm
01:07 30.6 °F /  -0.8 °C 29.5 °F /  -1.4 °C 30.6 in /  1037.8 hPa Calm   1 mph /  1.6 km/h 96 % 0 in /  0.0 mm
01:12 30.6 °F /  -0.8 °C 29.8 °F /  -1.2 °C 30.6 in /  1037.8 hPa NNW 1 mph /  1.6 km/h 1 mph /  1.6 km/h 97 % 0 in /  0.0 mm
01:22 30.4 °F /  -0.9 °C 29.7 °F /  -1.3 °C 30.6 in /  1037.8 hPa Calm   1 mph /  1.6 km/h 97 % 0 in /  0.0 mm
01:32 30 °F /  -1.1 °C 29.3 °F /  -1.5 °C 30.6 in /  1037.8 hPa Calm   1 mph /  1.6 km/h 97 % 0 in /  0.0 mm
01:37 30 °F /  -1.1 °C 29.3 °F /  -1.5 °C 30.6 in /  1037.5 hPa Calm   1 mph /  1.6 km/h 97 % 0 in /  0.0 mm
01:42 29.8 °F /  -1.2 °C 29.1 °F /  -1.6 °C 30.6 in /  1037.5 hPa Calm   1 mph /  1.6 km/h 97 % 0 in /  0.0 mm
01:47 29.7 °F /  -1.3 °C 28.9 °F /  -1.7 °C 30.6 in /  1037.5 hPa Calm     97 % 0 in /  0.0 mm
01:52 29.5 °F /  -1.4 °C 28.8 °F /  -1.8 °C 30.6 in /  1037.5 hPa Calm     97 % 0 in /  0.0 mm
02:02 29.3 °F /  -1.5 °C 28.6 °F /  -1.9 °C 30.6 in /  1037.5 hPa Calm     97 % 0 in /  0.0 mm
02:07 29.3 °F /  -1.5 °C 28.6 °F /  -1.9 °C 30.6 in /  1037.5 hPa Calm   1 mph /  1.6 km/h 97 % 0 in /  0.0 mm
02:12 29.5 °F /  -1.4 °C 28.8 °F /  -1.8 °C 30.6 in /  1037.5 hPa North 1 mph /  1.6 km/h 1 mph /  1.6 km/h 97 % 0 in /  0.0 mm
02:17 29.7 °F /  -1.3 °C 28.9 °F /  -1.7 °C 30.6 in /  1037.5 hPa Calm   1 mph /  1.6 km/h 97 % 0 in /  0.0 mm
02:22 29.7 °F /  -1.3 °C 28.9 °F /  -1.7 °C 30.6 in /  1037.5 hPa Calm   1 mph /  1.6 km/h 97 % 0 in /  0.0 mm
02:27 29.5 °F /  -1.4 °C 28.8 °F /  -1.8 °C 30.6 in /  1037.5 hPa Calm   1 mph /  1.6 km/h 97 % 0 in /  0.0 mm
02:32 29.5 °F /  -1.4 °C 28.8 °F /  -1.8 °C 30.6 in /  1037.5 hPa Calm   1 mph /  1.6 km/h 97 % 0 in /  0.0 mm
02:37 29.5 °F /  -1.4 °C 28.8 °F /  -1.8 °C 30.6 in /  1037.5 hPa Calm   1 mph /  1.6 km/h 97 % 0 in /  0.0 mm
02:42 29.5 °F /  -1.4 °C 28.8 °F /  -1.8 °C 30.6 in /  1037.1 hPa Calm   1 mph /  1.6 km/h 97 % 0 in /  0.0 mm
02:47 29.8 °F /  -1.2 °C 29.1 °F /  -1.6 °C 30.6 in /  1037.1 hPa Calm   1 mph /  1.6 km/h 97 % 0 in /  0.0 mm
02:52 29.8 °F /  -1.2 °C 29.1 °F /  -1.6 °C 30.6 in /  1037.1 hPa Calm     97 % 0 in /  0.0 mm
02:57 29.7 °F /  -1.3 °C 28.9 °F /  -1.7 °C 30.6 in /  1037.1 hPa Calm     97 % 0 in /  0.0 mm
03:02 29.8 °F /  -1.2 °C 29.1 °F /  -1.6 °C 30.6 in /  1037.1 hPa Calm     97 % 0 in /  0.0 mm
03:12 30.2 °F /  -1.0 °C 29.5 °F /  -1.4 °C 30.6 in /  1037.1 hPa Calm     97 % 0 in /  0.0 mm
03:17 30 °F /  -1.1 °C 29.3 °F /  -1.5 °C 30.6 in /  1037.1 hPa Calm     97 % 0 in /  0.0 mm
03:27 30 °F /  -1.1 °C 29.3 °F /  -1.5 °C 30.6 in /  1037.1 hPa Calm     97 % 0 in /  0.0 mm
03:37 30 °F /  -1.1 °C 29.3 °F /  -1.5 °C 30.6 in /  1037.1 hPa Calm     97 % 0 in /  0.0 mm
03:42 30.7 °F /  -0.7 °C 30 °F /  -1.1 °C 30.6 in /  1037.1 hPa Calm     97 % 0 in /  0.0 mm
03:47 30.9 °F /  -0.6 °C 30.2 °F /  -1.0 °C 30.6 in /  1037.1 hPa Calm     97 % 0 in /  0.0 mm
03:52 30.7 °F /  -0.7 °C 30.2 °F /  -1.0 °C 30.6 in /  1037.1 hPa Calm     98 % 0 in /  0.0 mm
03:57 30.6 °F /  -0.8 °C 29.8 °F /  -1.2 °C 30.6 in /  1037.1 hPa Calm     97 % 0 in /  0.0 mm
04:02 30 °F /  -1.1 °C 29.3 °F /  -1.5 °C 30.6 in /  1037.1 hPa Calm     97 % 0 in /  0.0 mm
04:07 30.2 °F /  -1.0 °C 29.5 °F /  -1.4 °C 30.6 in /  1037.1 hPa Calm   1 mph /  1.6 km/h 97 % 0 in /  0.0 mm
04:12 30.9 °F /  -0.6 °C 30.2 °F /  -1.0 °C 30.6 in /  1037.1 hPa Calm   1 mph /  1.6 km/h 97 % 0 in /  0.0 mm
04:17 31.5 °F /  -0.3 °C 30.9 °F /  -0.6 °C 30.6 in /  1037.1 hPa Calm   1 mph /  1.6 km/h 98 % 0 in /  0.0 mm
04:22 31.6 °F /  -0.2 °C 31.1 °F /  -0.5 °C 30.6 in /  1037.1 hPa Calm   1 mph /  1.6 km/h 98 % 0 in /  0.0 mm
04:27 31.6 °F /  -0.2 °C 31.1 °F /  -0.5 °C 30.6 in /  1037.1 hPa East 1 mph /  1.6 km/h 1 mph /  1.6 km/h 98 % 0 in /  0.0 mm
04:32 32.2 °F /  0.1 °C 31.6 °F /  -0.2 °C 30.6 in /  1036.8 hPa East 1 mph /  1.6 km/h 2 mph /  3.2 km/h 98 % 0 in /  0.0 mm
04:37 32.2 °F /  0.1 °C 31.6 °F /  -0.2 °C 30.6 in /  1036.8 hPa Calm   2 mph /  3.2 km/h 98 % 0 in /  0.0 mm
04:42 32.4 °F /  0.2 °C 31.8 °F /  -0.1 °C 30.6 in /  1036.8 hPa Calm   2 mph /  3.2 km/h 98 % 0 in /  0.0 mm
04:47 32.5 °F /  0.3 °C 32 °F /  0.0 °C 30.6 in /  1036.8 hPa East 1 mph /  1.6 km/h 4 mph /  6.4 km/h 98 % 0 in /  0.0 mm
04:52 32.7 °F /  0.4 °C 32.2 °F /  0.1 °C 30.6 in /  1036.8 hPa SE 2 mph /  3.2 km/h 4 mph /  6.4 km/h 98 % 0 in /  0.0 mm
04:57 32.7 °F /  0.4 °C 32.2 °F /  0.1 °C 30.6 in /  1036.8 hPa Calm   4 mph /  6.4 km/h 98 % 0 in /  0.0 mm
05:02 32.7 °F /  0.4 °C 32.2 °F /  0.1 °C 30.6 in /  1036.8 hPa Calm   2 mph /  3.2 km/h 98 % 0 in /  0.0 mm
05:07 32.5 °F /  0.3 °C 32 °F /  0.0 °C 30.6 in /  1036.8 hPa Calm   2 mph /  3.2 km/h 98 % 0 in /  0.0 mm
05:17 32.7 °F /  0.4 °C 32 °F /  0.0 °C 30.6 in /  1036.8 hPa Calm   1 mph /  1.6 km/h 97 % 0 in /  0.0 mm
05:22 32.5 °F /  0.3 °C 31.8 °F /  -0.1 °C 30.6 in /  1036.8 hPa Calm     97 % 0 in /  0.0 mm
05:32 32.7 °F /  0.4 °C 32 °F /  0.0 °C 30.6 in /  1036.5 hPa Calm     97 % 0 in /  0.0 mm
05:42 32.7 °F /  0.4 °C 32 °F /  0.0 °C 30.6 in /  1036.5 hPa Calm     97 % 0 in /  0.0 mm
05:47 32.7 °F /  0.4 °C 32 °F /  0.0 °C 30.6 in /  1036.5 hPa Calm     97 % 0 in /  0.0 mm
05:52 32.5 °F /  0.3 °C 31.8 °F /  -0.1 °C 30.6 in /  1036.5 hPa Calm     97 % 0 in /  0.0 mm
06:02 32.4 °F /  0.2 °C 31.6 °F /  -0.2 °C 30.6 in /  1036.5 hPa Calm     97 % 0 in /  0.0 mm
06:12 32.4 °F /  0.2 °C 31.6 °F /  -0.2 °C 30.6 in /  1036.5 hPa Calm     97 % 0 in /  0.0 mm
06:17 32.4 °F /  0.2 °C 31.6 °F /  -0.2 °C 30.6 in /  1036.5 hPa Calm     97 % 0 in /  0.0 mm
06:22 32.2 °F /  0.1 °C 31.5 °F /  -0.3 °C 30.6 in /  1036.5 hPa Calm     97 % 0 in /  0.0 mm
06:32 32.2 °F /  0.1 °C 31.5 °F /  -0.3 °C 30.6 in /  1036.5 hPa Calm     97 % 0 in /  0.0 mm
06:37 32 °F /  0.0 °C 31.3 °F /  -0.4 °C 30.6 in /  1036.5 hPa Calm     97 % 0 in /  0.0 mm
06:42 32.2 °F /  0.1 °C 31.5 °F /  -0.3 °C 30.6 in /  1036.5 hPa Calm     97 % 0 in /  0.0 mm
06:47 32.2 °F /  0.1 °C 31.5 °F /  -0.3 °C 30.6 in /  1036.5 hPa Calm     97 % 0 in /  0.0 mm
06:52 32.4 °F /  0.2 °C 31.6 °F /  -0.2 °C 30.6 in /  1036.5 hPa Calm     97 % 0 in /  0.0 mm
07:02 32.4 °F /  0.2 °C 31.6 °F /  -0.2 °C 30.6 in /  1036.5 hPa Calm     97 % 0 in /  0.0 mm
07:12 32.2 °F /  0.1 °C 31.5 °F /  -0.3 °C 30.6 in /  1036.1 hPa Calm     97 % 0 in /  0.0 mm
07:17 32.2 °F /  0.1 °C 31.5 °F /  -0.3 °C 30.6 in /  1036.1 hPa Calm     97 % 0 in /  0.0 mm
07:22 32.2 °F /  0.1 °C 31.5 °F /  -0.3 °C 30.6 in /  1036.1 hPa Calm     97 % 0 in /  0.0 mm
07:32 32.2 °F /  0.1 °C 31.5 °F /  -0.3 °C 30.6 in /  1036.1 hPa Calm     97 % 0 in /  0.0 mm
07:42 31.8 °F /  -0.1 °C 31.1 °F /  -0.5 °C 30.6 in /  1036.1 hPa NNE 2 mph /  3.2 km/h   97 % 0 in /  0.0 mm
07:52 32.2 °F /  0.1 °C 31.5 °F /  -0.3 °C 30.6 in /  1036.1 hPa North 1 mph /  1.6 km/h 2 mph /  3.2 km/h 97 % 0 in /  0.0 mm
07:57 32.4 °F /  0.2 °C 31.6 °F /  -0.2 °C 30.6 in /  1036.1 hPa Calm   2 mph /  3.2 km/h 97 % 0 in /  0.0 mm
08:02 32.4 °F /  0.2 °C 31.6 °F /  -0.2 °C 30.6 in /  1036.1 hPa Calm   1 mph /  1.6 km/h 97 % 0 in /  0.0 mm
08:07 32.4 °F /  0.2 °C 31.6 °F /  -0.2 °C 30.6 in /  1035.8 hPa Calm   1 mph /  1.6 km/h 97 % 0 in /  0.0 mm
08:12 32.2 °F /  0.1 °C 31.5 °F /  -0.3 °C 30.6 in /  1035.8 hPa Calm   1 mph /  1.6 km/h 97 % 0 in /  0.0 mm
08:17 32.2 °F /  0.1 °C 31.5 °F /  -0.3 °C 30.6 in /  1036.1 hPa Calm   1 mph /  1.6 km/h 97 % 0 in /  0.0 mm
08:22 32.4 °F /  0.2 °C 31.6 °F /  -0.2 °C 30.6 in /  1036.1 hPa Calm   1 mph /  1.6 km/h 97 % 0 in /  0.0 mm
08:32 32.2 °F /  0.1 °C 31.5 °F /  -0.3 °C 30.6 in /  1036.1 hPa Calm   1 mph /  1.6 km/h 97 % 0 in /  0.0 mm
08:42 32.2 °F /  0.1 °C 31.5 °F /  -0.3 °C 30.6 in /  1036.1 hPa Calm   1 mph /  1.6 km/h 97 % 0 in /  0.0 mm
08:47 32.2 °F /  0.1 °C 31.5 °F /  -0.3 °C 30.6 in /  1036.1 hPa Calm     97 % 0 in /  0.0 mm
08:57 31.8 °F /  -0.1 °C 31.1 °F /  -0.5 °C 30.6 in /  1036.1 hPa Calm     97 % 0 in /  0.0 mm
09:07 31.8 °F /  -0.1 °C 31.1 °F /  -0.5 °C 30.6 in /  1035.8 hPa Calm   1 mph /  1.6 km/h 97 % 0 in /  0.0 mm
09:12 31.8 °F /  -0.1 °C 31.1 °F /  -0.5 °C 30.6 in /  1036.1 hPa Calm   1 mph /  1.6 km/h 97 % 0 in /  0.0 mm
09:17 31.8 °F /  -0.1 °C 31.1 °F /  -0.5 °C 30.6 in /  1035.8 hPa Calm   1 mph /  1.6 km/h 97 % 0 in /  0.0 mm
09:22 31.8 °F /  -0.1 °C 31.1 °F /  -0.5 °C 30.6 in /  1035.8 hPa Calm   1 mph /  1.6 km/h 97 % 0 in /  0.0 mm
09:32 31.8 °F /  -0.1 °C 31.1 °F /  -0.5 °C 30.6 in /  1035.8 hPa WNW 1 mph /  1.6 km/h 1 mph /  1.6 km/h 97 % 0 in /  0.0 mm
09:42 32.2 °F /  0.1 °C 31.5 °F /  -0.3 °C 30.6 in /  1035.8 hPa Calm   1 mph /  1.6 km/h 97 % 0 in /  0.0 mm
09:52 32.4 °F /  0.2 °C 31.6 °F /  -0.2 °C 30.6 in /  1035.8 hPa Calm   1 mph /  1.6 km/h 97 % 0 in /  0.0 mm
09:57 32.5 °F /  0.3 °C 31.8 °F /  -0.1 °C 30.6 in /  1035.8 hPa Calm     97 % 0 in /  0.0 mm
10:02 32.7 °F /  0.4 °C 32.2 °F /  0.1 °C 30.6 in /  1035.8 hPa Calm     98 % 0 in /  0.0 mm
10:12 32.7 °F /  0.4 °C 32.2 °F /  0.1 °C 30.6 in /  1035.8 hPa Calm   1 mph /  1.6 km/h 98 % 0 in /  0.0 mm
10:17 33.1 °F /  0.6 °C 32.5 °F /  0.3 °C 30.6 in /  1035.8 hPa Calm   1 mph /  1.6 km/h 98 % 0.01 in /  0.3 mm
10:22 33.3 °F /  0.7 °C 32.7 °F /  0.4 °C 30.6 in /  1035.8 hPa Calm   1 mph /  1.6 km/h 98 % 0.01 in /  0.3 mm
10:32 33.6 °F /  0.9 °C 33.1 °F /  0.6 °C 30.6 in /  1035.8 hPa Calm     98 % 0.01 in /  0.3 mm
10:37 33.8 °F /  1.0 °C 33.3 °F /  0.7 °C 30.6 in /  1035.8 hPa Calm     98 % 0.01 in /  0.3 mm
10:42 34 °F /  1.1 °C 33.4 °F /  0.8 °C 30.6 in /  1036.1 hPa Calm     98 % 0.01 in /  0.3 mm
10:47 34.2 °F /  1.2 °C 33.6 °F /  0.9 °C 30.6 in /  1036.1 hPa Calm     98 % 0.01 in /  0.3 mm
10:52 34.2 °F /  1.2 °C 33.6 °F /  0.9 °C 30.6 in /  1036.1 hPa Calm     98 % 0.01 in /  0.3 mm
11:02 34.2 °F /  1.2 °C 33.6 °F /  0.9 °C 30.6 in /  1036.1 hPa Calm     98 % 0.01 in /  0.3 mm
11:12 34.3 °F /  1.3 °C 33.6 °F /  0.9 °C 30.6 in /  1035.8 hPa Calm   1 mph /  1.6 km/h 97 % 0.01 in /  0.3 mm
11:17 34.3 °F /  1.3 °C 33.6 °F /  0.9 °C 30.6 in /  1035.8 hPa Calm   1 mph /  1.6 km/h 97 % 0 in /  0.0 mm
11:22 34.5 °F /  1.4 °C 33.8 °F /  1.0 °C 30.6 in /  1035.8 hPa Calm   1 mph /  1.6 km/h 97 % 0 in /  0.0 mm
11:27 34.5 °F /  1.4 °C 33.8 °F /  1.0 °C 30.6 in /  1035.8 hPa South 1 mph /  1.6 km/h 2 mph /  3.2 km/h 97 % 0 in /  0.0 mm
11:32 34.7 °F /  1.5 °C 34 °F /  1.1 °C 30.6 in /  1035.8 hPa Calm   2 mph /  3.2 km/h 97 % 0 in /  0.0 mm
11:37 34.7 °F /  1.5 °C 34 °F /  1.1 °C 30.6 in /  1035.4 hPa Calm   2 mph /  3.2 km/h 97 % 0 in /  0.0 mm
11:42 34.9 °F /  1.6 °C 34.2 °F /  1.2 °C 30.6 in /  1035.4 hPa Calm   2 mph /  3.2 km/h 97 % 0 in /  0.0 mm
11:47 34.9 °F /  1.6 °C 34.2 °F /  1.2 °C 30.6 in /  1035.1 hPa SSE 1 mph /  1.6 km/h 2 mph /  3.2 km/h 97 % 0 in /  0.0 mm
11:52 34.9 °F /  1.6 °C 34.2 °F /  1.2 °C 30.6 in /  1035.1 hPa Calm   2 mph /  3.2 km/h 97 % 0 in /  0.0 mm
12:02 35.1 °F /  1.7 °C 34.3 °F /  1.3 °C 30.6 in /  1035.1 hPa Calm   3 mph /  4.8 km/h 97 % 0 in /  0.0 mm
12:12 35.2 °F /  1.8 °C 34.5 °F /  1.4 °C 30.6 in /  1034.8 hPa SSE 2 mph /  3.2 km/h 3 mph /  4.8 km/h 97 % 0 in /  0.0 mm
12:17 35.2 °F /  1.8 °C 34.5 °F /  1.4 °C 30.6 in /  1034.8 hPa SSE 1 mph /  1.6 km/h 4 mph /  6.4 km/h 97 % 0 in /  0.0 mm
12:22 35.2 °F /  1.8 °C 34.5 °F /  1.4 °C 30.6 in /  1034.8 hPa Calm   4 mph /  6.4 km/h 97 % 0 in /  0.0 mm
12:32 35.4 °F /  1.9 °C 34.7 °F /  1.5 °C 30.6 in /  1034.8 hPa Calm   3 mph /  4.8 km/h 97 % 0 in /  0.0 mm
12:42 35.4 °F /  1.9 °C 34.7 °F /  1.5 °C 30.6 in /  1034.8 hPa ESE 1 mph /  1.6 km/h 3 mph /  4.8 km/h 97 % 0 in /  0.0 mm
12:47 35.4 °F /  1.9 °C 34.7 °F /  1.5 °C 30.6 in /  1034.8 hPa Calm   3 mph /  4.8 km/h 97 % 0 in /  0.0 mm
12:52 35.8 °F /  2.1 °C 35.1 °F /  1.7 °C 30.6 in /  1034.8 hPa Calm   2 mph /  3.2 km/h 97 % 0 in /  0.0 mm
12:57 35.8 °F /  2.1 °C 35.1 °F /  1.7 °C 30.5 in /  1034.4 hPa SE 1 mph /  1.6 km/h 3 mph /  4.8 km/h 97 % 0 in /  0.0 mm
13:02 35.8 °F /  2.1 °C 35.1 °F /  1.7 °C 30.5 in /  1034.4 hPa SE 3 mph /  4.8 km/h 3 mph /  4.8 km/h 97 % 0 in /  0.0 mm
13:07 35.8 °F /  2.1 °C 35.1 °F /  1.7 °C 30.5 in /  1034.4 hPa SE 1 mph /  1.6 km/h 3 mph /  4.8 km/h 97 % 0 in /  0.0 mm
13:12 35.8 °F /  2.1 °C 35.1 °F /  1.7 °C 30.5 in /  1034.4 hPa ESE 1 mph /  1.6 km/h 3 mph /  4.8 km/h 97 % 0 in /  0.0 mm
13:17 35.8 °F /  2.1 °C 35.1 °F /  1.7 °C 30.5 in /  1034.1 hPa SSE 1 mph /  1.6 km/h 5 mph /  8.0 km/h 97 % 0 in /  0.0 mm
13:22 36 °F /  2.2 °C 35.2 °F /  1.8 °C 30.5 in /  1034.1 hPa ESE 2 mph /  3.2 km/h 5 mph /  8.0 km/h 97 % 0 in /  0.0 mm
13:27 36.1 °F /  2.3 °C 35.4 °F /  1.9 °C 30.5 in /  1034.1 hPa ESE 1 mph /  1.6 km/h 5 mph /  8.0 km/h 97 % 0 in /  0.0 mm
13:32 36 °F /  2.2 °C 35.2 °F /  1.8 °C 30.5 in /  1034.1 hPa ESE 1 mph /  1.6 km/h 4 mph /  6.4 km/h 97 % 0 in /  0.0 mm
13:42 36 °F /  2.2 °C 35.2 °F /  1.8 °C 30.5 in /  1033.7 hPa SE 1 mph /  1.6 km/h 6 mph /  9.7 km/h 97 % 0 in /  0.0 mm
13:47 36 °F /  2.2 °C 35.2 °F /  1.8 °C 30.5 in /  1033.7 hPa Calm   6 mph /  9.7 km/h 97 % 0 in /  0.0 mm
13:52 36.1 °F /  2.3 °C 35.4 °F /  1.9 °C 30.5 in /  1033.7 hPa SE 1 mph /  1.6 km/h 5 mph /  8.0 km/h 97 % 0 in /  0.0 mm
13:57 36.1 °F /  2.3 °C 35.4 °F /  1.9 °C 30.5 in /  1033.7 hPa SE 3 mph /  4.8 km/h 5 mph /  8.0 km/h 97 % 0 in /  0.0 mm
14:02 36.3 °F /  2.4 °C 35.6 °F /  2.0 °C 30.5 in /  1033.7 hPa Calm   4 mph /  6.4 km/h 97 % 0 in /  0.0 mm
14:07 36.3 °F /  2.4 °C 35.2 °F /  1.8 °C 30.5 in /  1033.7 hPa Calm   4 mph /  6.4 km/h 96 % 0 in /  0.0 mm
14:12 36.3 °F /  2.4 °C 35.2 °F /  1.8 °C 30.5 in /  1033.7 hPa SSE 1 mph /  1.6 km/h 4 mph /  6.4 km/h 96 % 0 in /  0.0 mm
14:17 36.3 °F /  2.4 °C 35.2 °F /  1.8 °C 30.5 in /  1033.7 hPa Calm   4 mph /  6.4 km/h 96 % 0 in /  0.0 mm
14:22 36.3 °F /  2.4 °C 35.2 °F /  1.8 °C 30.5 in /  1033.7 hPa Calm   4 mph /  6.4 km/h 96 % 0 in /  0.0 mm
14:27 36.3 °F /  2.4 °C 35.2 °F /  1.8 °C 30.5 in /  1033.4 hPa Calm   4 mph /  6.4 km/h 96 % 0 in /  0.0 mm
14:32 36.3 °F /  2.4 °C 35.2 °F /  1.8 °C 30.5 in /  1033.4 hPa SE 3 mph /  4.8 km/h 4 mph /  6.4 km/h 96 % 0 in /  0.0 mm
14:42 36.1 °F /  2.3 °C 34.9 °F /  1.6 °C 30.5 in /  1033.4 hPa ESE 2 mph /  3.2 km/h 5 mph /  8.0 km/h 95 % 0 in /  0.0 mm
14:47 36.1 °F /  2.3 °C 34.9 °F /  1.6 °C 30.5 in /  1033.4 hPa Calm   5 mph /  8.0 km/h 95 % 0 in /  0.0 mm
14:52 36.1 °F /  2.3 °C 34.5 °F /  1.4 °C 30.5 in /  1033.1 hPa East 1 mph /  1.6 km/h 5 mph /  8.0 km/h 94 % 0 in /  0.0 mm
14:57 36.3 °F /  2.4 °C 34.7 °F /  1.5 °C 30.5 in /  1033.1 hPa SSE 1 mph /  1.6 km/h 3 mph /  4.8 km/h 94 % 0 in /  0.0 mm
15:02 36.1 °F /  2.3 °C 34.5 °F /  1.4 °C 30.5 in /  1033.1 hPa ESE 3 mph /  4.8 km/h 3 mph /  4.8 km/h 94 % 0 in /  0.0 mm
15:07 36.1 °F /  2.3 °C 34.5 °F /  1.4 °C 30.5 in /  1033.1 hPa Calm   4 mph /  6.4 km/h 94 % 0 in /  0.0 mm
15:12 36.1 °F /  2.3 °C 34.5 °F /  1.4 °C 30.5 in /  1033.1 hPa South 1 mph /  1.6 km/h 4 mph /  6.4 km/h 94 % 0 in /  0.0 mm
15:17 36.1 °F /  2.3 °C 34.3 °F /  1.3 °C 30.5 in /  1033.1 hPa SSE 1 mph /  1.6 km/h 4 mph /  6.4 km/h 93 % 0 in /  0.0 mm
15:22 36.1 °F /  2.3 °C 34.3 °F /  1.3 °C 30.5 in /  1033.1 hPa Calm   4 mph /  6.4 km/h 93 % 0 in /  0.0 mm
15:27 36.1 °F /  2.3 °C 34.3 °F /  1.3 °C 30.5 in /  1033.1 hPa SE 2 mph /  3.2 km/h 4 mph /  6.4 km/h 93 % 0 in /  0.0 mm
15:32 36.1 °F /  2.3 °C 34.3 °F /  1.3 °C 30.5 in /  1033.1 hPa East 1 mph /  1.6 km/h 6 mph /  9.7 km/h 93 % 0 in /  0.0 mm
15:42 36.1 °F /  2.3 °C 34.3 °F /  1.3 °C 30.5 in /  1033.1 hPa SE 2 mph /  3.2 km/h 6 mph /  9.7 km/h 93 % 0 in /  0.0 mm
15:47 36 °F /  2.2 °C 34.2 °F /  1.2 °C 30.5 in /  1033.1 hPa ESE 2 mph /  3.2 km/h 5 mph /  8.0 km/h 93 % 0 in /  0.0 mm
15:52 36.1 °F /  2.3 °C 34.3 °F /  1.3 °C 30.5 in /  1033.1 hPa Calm   5 mph /  8.0 km/h 93 % 0 in /  0.0 mm
15:57 36.1 °F /  2.3 °C 34.3 °F /  1.3 °C 30.5 in /  1032.7 hPa East 2 mph /  3.2 km/h 5 mph /  8.0 km/h 93 % 0 in /  0.0 mm
16:02 36.1 °F /  2.3 °C 34.3 °F /  1.3 °C 30.5 in /  1032.7 hPa East 1 mph /  1.6 km/h 4 mph /  6.4 km/h 93 % 0 in /  0.0 mm
16:07 36.1 °F /  2.3 °C 34.3 °F /  1.3 °C 30.5 in /  1032.7 hPa East 1 mph /  1.6 km/h 2 mph /  3.2 km/h 93 % 0 in /  0.0 mm
16:12 36.1 °F /  2.3 °C 34.3 °F /  1.3 °C 30.5 in /  1032.7 hPa SE 1 mph /  1.6 km/h 4 mph /  6.4 km/h 93 % 0 in /  0.0 mm
16:17 36.1 °F /  2.3 °C 34.3 °F /  1.3 °C 30.5 in /  1032.7 hPa SE 1 mph /  1.6 km/h 4 mph /  6.4 km/h 93 % 0 in /  0.0 mm
16:22 36 °F /  2.2 °C 34.2 °F /  1.2 °C 30.5 in /  1032.7 hPa SE 1 mph /  1.6 km/h 4 mph /  6.4 km/h 93 % 0 in /  0.0 mm
16:27 36 °F /  2.2 °C 33.8 °F /  1.0 °C 30.5 in /  1032.7 hPa SE 1 mph /  1.6 km/h 6 mph /  9.7 km/h 92 % 0 in /  0.0 mm
16:32 36.1 °F /  2.3 °C 34.3 °F /  1.3 °C 30.5 in /  1032.7 hPa Calm   6 mph /  9.7 km/h 93 % 0 in /  0.0 mm
16:42 36 °F /  2.2 °C 33.8 °F /  1.0 °C 30.5 in /  1032.7 hPa South 3 mph /  4.8 km/h 4 mph /  6.4 km/h 92 % 0 in /  0.0 mm
16:47 36 °F /  2.2 °C 33.8 °F /  1.0 °C 30.5 in /  1032.7 hPa SSE 2 mph /  3.2 km/h 5 mph /  8.0 km/h 92 % 0 in /  0.0 mm
16:52 36 °F /  2.2 °C 33.8 °F /  1.0 °C 30.5 in /  1032.7 hPa Calm   5 mph /  8.0 km/h 92 % 0 in /  0.0 mm
17:02 36 °F /  2.2 °C 33.8 °F /  1.0 °C 30.5 in /  1032.7 hPa Calm   4 mph /  6.4 km/h 92 % 0 in /  0.0 mm
17:07 36 °F /  2.2 °C 33.8 °F /  1.0 °C 30.5 in /  1032.7 hPa Calm   2 mph /  3.2 km/h 92 % 0 in /  0.0 mm
17:12 36 °F /  2.2 °C 34.2 °F /  1.2 °C 30.5 in /  1032.7 hPa Calm   2 mph /  3.2 km/h 93 % 0 in /  0.0 mm
17:17 36 °F /  2.2 °C 34.2 °F /  1.2 °C 30.5 in /  1032.4 hPa Calm   2 mph /  3.2 km/h 93 % 0 in /  0.0 mm
17:22 36 °F /  2.2 °C 34.2 °F /  1.2 °C 30.5 in /  1032.4 hPa SE 1 mph /  1.6 km/h 3 mph /  4.8 km/h 93 % 0 in /  0.0 mm
17:32 35.8 °F /  2.1 °C 34 °F /  1.1 °C 30.5 in /  1032.4 hPa ESE 2 mph /  3.2 km/h 4 mph /  6.4 km/h 93 % 0 in /  0.0 mm
17:37 36 °F /  2.2 °C 34.2 °F /  1.2 °C 30.5 in /  1032.4 hPa Calm   4 mph /  6.4 km/h 93 % 0 in /  0.0 mm
17:42 35.8 °F /  2.1 °C 33.6 °F /  0.9 °C 30.5 in /  1032.4 hPa SE 1 mph /  1.6 km/h 4 mph /  6.4 km/h 92 % 0 in /  0.0 mm
17:47 35.6 °F /  2.0 °C 33.4 °F /  0.8 °C 30.5 in /  1032.4 hPa SE 2 mph /  3.2 km/h 5 mph /  8.0 km/h 92 % 0 in /  0.0 mm
17:52 35.8 °F /  2.1 °C 33.6 °F /  0.9 °C 30.5 in /  1032.4 hPa Calm   6 mph /  9.7 km/h 92 % 0 in /  0.0 mm
17:57 35.8 °F /  2.1 °C 33.6 °F /  0.9 °C 30.5 in /  1032.1 hPa SE 2 mph /  3.2 km/h 6 mph /  9.7 km/h 92 % 0 in /  0.0 mm
18:02 35.8 °F /  2.1 °C 33.6 °F /  0.9 °C 30.5 in /  1032.1 hPa Calm   6 mph /  9.7 km/h 92 % 0 in /  0.0 mm
18:12 35.8 °F /  2.1 °C 33.6 °F /  0.9 °C 30.5 in /  1032.1 hPa SE 1 mph /  1.6 km/h 4 mph /  6.4 km/h 92 % 0 in /  0.0 mm
18:17 35.8 °F /  2.1 °C 33.6 °F /  0.9 °C 30.5 in /  1032.1 hPa Calm   4 mph /  6.4 km/h 92 % 0 in /  0.0 mm
18:22 35.8 °F /  2.1 °C 33.6 °F /  0.9 °C 30.5 in /  1032.1 hPa South 2 mph /  3.2 km/h 4 mph /  6.4 km/h 92 % 0 in /  0.0 mm
18:32 35.6 °F /  2.0 °C 33.4 °F /  0.8 °C 30.5 in /  1032.1 hPa SE 1 mph /  1.6 km/h 4 mph /  6.4 km/h 92 % 0 in /  0.0 mm
18:42 35.8 °F /  2.1 °C 33.6 °F /  0.9 °C 30.5 in /  1032.1 hPa SSE 1 mph /  1.6 km/h 4 mph /  6.4 km/h 92 % 0 in /  0.0 mm
18:47 35.8 °F /  2.1 °C 33.6 °F /  0.9 °C 30.5 in /  1032.1 hPa SE 1 mph /  1.6 km/h 4 mph /  6.4 km/h 92 % 0 in /  0.0 mm
18:52 35.8 °F /  2.1 °C 33.6 °F /  0.9 °C 30.5 in /  1031.7 hPa SSE 1 mph /  1.6 km/h 3 mph /  4.8 km/h 92 % 0 in /  0.0 mm
18:57 35.8 °F /  2.1 °C 33.6 °F /  0.9 °C 30.5 in /  1031.7 hPa ESE 2 mph /  3.2 km/h 3 mph /  4.8 km/h 92 % 0 in /  0.0 mm
19:02 35.8 °F /  2.1 °C 33.6 °F /  0.9 °C 30.5 in /  1031.7 hPa Calm   4 mph /  6.4 km/h 92 % 0 in /  0.0 mm
19:07 35.8 °F /  2.1 °C 33.6 °F /  0.9 °C 30.5 in /  1031.7 hPa SE 2 mph /  3.2 km/h 5 mph /  8.0 km/h 92 % 0 in /  0.0 mm
19:12 35.8 °F /  2.1 °C 33.6 °F /  0.9 °C 30.5 in /  1031.7 hPa SE 1 mph /  1.6 km/h 5 mph /  8.0 km/h 92 % 0 in /  0.0 mm
19:17 35.8 °F /  2.1 °C 33.6 °F /  0.9 °C 30.5 in /  1031.7 hPa Calm   5 mph /  8.0 km/h 92 % 0 in /  0.0 mm
19:22 35.8 °F /  2.1 °C 33.6 °F /  0.9 °C 30.5 in /  1031.7 hPa Calm   4 mph /  6.4 km/h 92 % 0 in /  0.0 mm
19:27 35.8 °F /  2.1 °C 33.6 °F /  0.9 °C 30.5 in /  1031.7 hPa SE 1 mph /  1.6 km/h 3 mph /  4.8 km/h 92 % 0 in /  0.0 mm
19:32 35.6 °F /  2.0 °C 33.4 °F /  0.8 °C 30.5 in /  1031.7 hPa SSW 3 mph /  4.8 km/h 3 mph /  4.8 km/h 92 % 0 in /  0.0 mm
19:42 35.6 °F /  2.0 °C 33.4 °F /  0.8 °C 30.5 in /  1031.7 hPa SSE 1 mph /  1.6 km/h 3 mph /  4.8 km/h 92 % 0 in /  0.0 mm
19:47 35.6 °F /  2.0 °C 33.4 °F /  0.8 °C 30.5 in /  1031.4 hPa Calm   4 mph /  6.4 km/h 92 % 0 in /  0.0 mm
19:52 35.6 °F /  2.0 °C 33.4 °F /  0.8 °C 30.5 in /  1031.4 hPa SE 2 mph /  3.2 km/h 4 mph /  6.4 km/h 92 % 0 in /  0.0 mm
19:57 35.6 °F /  2.0 °C 33.4 °F /  0.8 °C 30.5 in /  1031.4 hPa SE 2 mph /  3.2 km/h 4 mph /  6.4 km/h 92 % 0 in /  0.0 mm
20:02 35.6 °F /  2.0 °C 33.4 °F /  0.8 °C 30.5 in /  1031.4 hPa South 4 mph /  6.4 km/h 4 mph /  6.4 km/h 92 % 0 in /  0.0 mm
20:07 35.6 °F /  2.0 °C 33.4 °F /  0.8 °C 30.5 in /  1031.4 hPa SE 2 mph /  3.2 km/h 6 mph /  9.7 km/h 92 % 0 in /  0.0 mm
20:12 35.6 °F /  2.0 °C 33.4 °F /  0.8 °C 30.5 in /  1031.4 hPa SE 2 mph /  3.2 km/h 6 mph /  9.7 km/h 92 % 0 in /  0.0 mm
20:17 35.6 °F /  2.0 °C 33.4 °F /  0.8 °C 30.5 in /  1031.4 hPa East 2 mph /  3.2 km/h 6 mph /  9.7 km/h 92 % 0 in /  0.0 mm
20:27 35.6 °F /  2.0 °C 33.8 °F /  1.0 °C 30.5 in /  1031.4 hPa ESE 3 mph /  4.8 km/h 5 mph /  8.0 km/h 93 % 0 in /  0.0 mm
20:32 35.6 °F /  2.0 °C 33.8 °F /  1.0 °C 30.5 in /  1031.4 hPa Calm   5 mph /  8.0 km/h 93 % 0 in /  0.0 mm
20:42 35.4 °F /  1.9 °C 33.6 °F /  0.9 °C 30.4 in /  1031.0 hPa Calm   4 mph /  6.4 km/h 93 % 0 in /  0.0 mm
20:47 35.4 °F /  1.9 °C 33.6 °F /  0.9 °C 30.4 in /  1031.0 hPa SSE 2 mph /  3.2 km/h 3 mph /  4.8 km/h 93 % 0 in /  0.0 mm
20:57 35.4 °F /  1.9 °C 33.6 °F /  0.9 °C 30.4 in /  1031.0 hPa SSE 3 mph /  4.8 km/h 5 mph /  8.0 km/h 93 % 0 in /  0.0 mm
21:02 35.4 °F /  1.9 °C 33.6 °F /  0.9 °C 30.4 in /  1031.0 hPa Calm   5 mph /  8.0 km/h 93 % 0 in /  0.0 mm
21:07 35.4 °F /  1.9 °C 33.6 °F /  0.9 °C 30.4 in /  1031.0 hPa Calm   5 mph /  8.0 km/h 93 % 0 in /  0.0 mm
21:12 35.2 °F /  1.8 °C 33.4 °F /  0.8 °C 30.4 in /  1031.0 hPa SSE 1 mph /  1.6 km/h 5 mph /  8.0 km/h 93 % 0 in /  0.0 mm
21:17 35.2 °F /  1.8 °C 33.4 °F /  0.8 °C 30.4 in /  1031.0 hPa South 2 mph /  3.2 km/h 4 mph /  6.4 km/h 93 % 0 in /  0.0 mm
21:22 35.2 °F /  1.8 °C 33.4 °F /  0.8 °C 30.4 in /  1031.0 hPa South 2 mph /  3.2 km/h 5 mph /  8.0 km/h 93 % 0 in /  0.0 mm
21:27 35.1 °F /  1.7 °C 33.3 °F /  0.7 °C 30.4 in /  1031.0 hPa Calm   6 mph /  9.7 km/h 93 % 0 in /  0.0 mm
21:32 35.1 °F /  1.7 °C 33.3 °F /  0.7 °C 30.4 in /  1031.0 hPa South 3 mph /  4.8 km/h 6 mph /  9.7 km/h 93 % 0 in /  0.0 mm
21:42 35.1 °F /  1.7 °C 33.4 °F /  0.8 °C 30.4 in /  1031.0 hPa SE 2 mph /  3.2 km/h 5 mph /  8.0 km/h 94 % 0 in /  0.0 mm
21:47 34.9 °F /  1.6 °C 33.3 °F /  0.7 °C 30.4 in /  1031.0 hPa Calm   5 mph /  8.0 km/h 94 % 0 in /  0.0 mm
21:52 34.9 °F /  1.6 °C 33.3 °F /  0.7 °C 30.4 in /  1031.0 hPa SSW 1 mph /  1.6 km/h 4 mph /  6.4 km/h 94 % 0 in /  0.0 mm
21:57 34.7 °F /  1.5 °C 33.1 °F /  0.6 °C 30.4 in /  1030.7 hPa SSW 2 mph /  3.2 km/h 6 mph /  9.7 km/h 94 % 0 in /  0.0 mm
22:02 34.5 °F /  1.4 °C 32.9 °F /  0.5 °C 30.4 in /  1030.7 hPa South 1 mph /  1.6 km/h 6 mph /  9.7 km/h 94 % 0 in /  0.0 mm
22:07 34.5 °F /  1.4 °C 32.9 °F /  0.5 °C 30.4 in /  1030.7 hPa SSE 1 mph /  1.6 km/h 6 mph /  9.7 km/h 94 % 0 in /  0.0 mm
22:12 34.5 °F /  1.4 °C 32.9 °F /  0.5 °C 30.4 in /  1030.4 hPa SE 1 mph /  1.6 km/h 6 mph /  9.7 km/h 94 % 0 in /  0.0 mm
22:17 34.3 °F /  1.3 °C 32.7 °F /  0.4 °C 30.4 in /  1030.7 hPa South 4 mph /  6.4 km/h 6 mph /  9.7 km/h 94 % 0 in /  0.0 mm
22:22 34.3 °F /  1.3 °C 32.7 °F /  0.4 °C 30.4 in /  1030.7 hPa Calm   7 mph /  11.3 km/h 94 % 0 in /  0.0 mm
22:27 34.3 °F /  1.3 °C 32.7 °F /  0.4 °C 30.4 in /  1030.4 hPa SE 1 mph /  1.6 km/h 7 mph /  11.3 km/h 94 % 0 in /  0.0 mm
22:32 34.3 °F /  1.3 °C 32.7 °F /  0.4 °C 30.4 in /  1030.4 hPa SE 2 mph /  3.2 km/h 7 mph /  11.3 km/h 94 % 0 in /  0.0 mm
22:42 34.2 °F /  1.2 °C 32.9 °F /  0.5 °C 30.4 in /  1030.4 hPa SSW 4 mph /  6.4 km/h 7 mph /  11.3 km/h 95 % 0 in /  0.0 mm
23:02 34.2 °F /  1.2 °C 32.9 °F /  0.5 °C 30.4 in /  1030.4 hPa South 2 mph /  3.2 km/h 5 mph /  8.0 km/h 95 % 0 in /  0.0 mm
23:07 34.2 °F /  1.2 °C 32.9 °F /  0.5 °C 30.4 in /  1030.4 hPa SSE 1 mph /  1.6 km/h 5 mph /  8.0 km/h 95 % 0 in /  0.0 mm
23:12 34 °F /  1.1 °C 32.7 °F /  0.4 °C 30.4 in /  1030.0 hPa SE 1 mph /  1.6 km/h 6 mph /  9.7 km/h 95 % 0 in /  0.0 mm
23:17 34 °F /  1.1 °C 32.7 °F /  0.4 °C 30.4 in /  1030.0 hPa SW 1 mph /  1.6 km/h 6 mph /  9.7 km/h 95 % 0 in /  0.0 mm
23:22 34 °F /  1.1 °C 32.7 °F /  0.4 °C 30.4 in /  1030.0 hPa SSE 1 mph /  1.6 km/h 6 mph /  9.7 km/h 95 % 0 in /  0.0 mm
23:27 34 °F /  1.1 °C 32.7 °F /  0.4 °C 30.4 in /  1030.0 hPa SW 1 mph /  1.6 km/h 6 mph /  9.7 km/h 95 % 0 in /  0.0 mm
23:32 34 °F /  1.1 °C 32.7 °F /  0.4 °C 30.4 in /  1030.0 hPa SSE 1 mph /  1.6 km/h 6 mph /  9.7 km/h 95 % 0 in /  0.0 mm
23:37 33.8 °F /  1.0 °C 32.5 °F /  0.3 °C 30.4 in /  1030.0 hPa SSW 2 mph /  3.2 km/h 6 mph /  9.7 km/h 95 % 0 in /  0.0 mm
23:42 33.6 °F /  0.9 °C 32.4 °F /  0.2 °C 30.4 in /  1030.0 hPa South 1 mph /  1.6 km/h 7 mph /  11.3 km/h 95 % 0 in /  0.0 mm
23:47 33.6 °F /  0.9 °C 32.4 °F /  0.2 °C 30.4 in /  1030.0 hPa SSE 1 mph /  1.6 km/h 7 mph /  11.3 km/h 95 % 0 in /  0.0 mm
23:52 33.6 °F /  0.9 °C 32.4 °F /  0.2 °C 30.4 in /  1029.7 hPa SSE 2 mph /  3.2 km/h 7 mph /  11.3 km/h 95 % 0 in /  0.0 mm
23:57 33.6 °F /  0.9 °C 32.4 °F /  0.2 °C 30.4 in /  1029.7 hPa SSW 1 mph /  1.6 km/h 5 mph /  8.0 km/h 95 % 0 in /  0.0 mm
Meteo18
Compliments of Weather Underground - 4 mb

Script developed by  Jim McMurry - jmcmurry@mwt.net Adapted for the template by  Wim van der Kuil - Leuven-Template.eu

You find our weather info also at:

European Weather Network

Weather Underground

Equipment we use:

Weather-station
Davis Vue

Weather-program
Meteohub

Weather-server
Raspberry PI 2 B+

Provider
1 and 1

Davis Vue

Meteohub

Raspberry PI 2 B+

1 and 1